Date,TemperatureHighF,TemperatureAvgF,TemperatureLowF,DewpointHighF,DewpointAvgF,DewpointLowF,HumidityHigh,HumidityAvg,HumidityLow,PressureMaxIn,PressureMinIn,WindSpeedMaxMPH,WindSpeedAvgMPH,GustSpeedMaxMPH,PrecipitationSumIn
2014-1-1,58.9,47.5,31.3,24.7,20.9,17.3,59,37,21,30.14,29.88,9,5,20,0.00
2014-1-2,53.6,36.1,15.9,23.8,18.4,12.0,89,54,24,30.54,30.15,7,2,14,0.00
2014-1-3,59.0,41.5,21.4,36.8,23.5,15.5,91,54,24,30.34,29.80,12,4,20,0.00
2014-1-4,59.2,53.4,48.9,30.6,24.7,17.6,44,33,23,29.83,29.63,18,10,35,0.00
2014-1-5,53.3,35.4,19.5,25.8,18.6,13.8,88,55,25,30.39,29.66,13,3,27,0.00
2014-1-6,41.3,22.1,10.5,15.5,10.5,6.4,86,64,29,30.64,30.32,69,3,117,0.00
2014-1-7,54.4,31.1,11.7,33.9,19.5,6.4,88,66,33,30.65,30.09,13,3,18,0.00
2014-1-8,56.9,45.3,25.1,31.0,24.3,20.7,83,47,27,30.13,29.82,10,4,24,0.00
2014-1-9,60.9,34.5,21.0,32.6,22.0,16.1,92,67,19,30.32,29.85,10,1,13,0.00
2014-1-10,55.6,49.6,43.5,33.5,24.4,16.1,63,39,23,29.93,29.72,14,6,30,0.00
2014-1-11,63.9,45.9,24.8,19.8,14.5,11.0,63,32,13,30.28,29.91,7,2,17,0.00
2014-1-12,65.1,52.4,27.3,20.6,16.7,13.5,61,27,15,30.17,29.66,13,6,29,0.00
2014-1-13,52.8,45.5,27.9,16.0,3.0,-1.5,30,18,11,30.29,29.81,10,4,26,0.00
2014-1-14,53.6,43.0,21.3,12.6,6.6,0.4,67,26,14,30.41,30.02,9,4,22,0.00
2014-1-15,56.5,36.0,15.2,22.8,11.5,7.3,84,45,16,30.63,29.98,9,2,17,0.00
2014-1-16,57.5,43.0,21.4,15.7,10.0,5.1,70,29,15,30.24,29.94,6,2,16,0.00
2014-1-17,56.3,35.9,20.0,21.2,16.2,10.7,80,49,17,30.41,30.15,6,1,12,0.00
2014-1-18,57.8,37.2,17.2,22.1,13.0,10.0,76,44,17,30.35,30.11,5,2,158,0.00
2014-1-19,61.1,38.8,17.8,18.1,12.1,8.8,77,42,14,30.53,30.00,8,2,13,0.00
2014-1-20,62.0,51.8,31.9,13.4,10.3,6.5,45,19,11,30.25,29.88,12,5,24,0.00
2014-1-21,58.0,36.9,19.5,15.9,11.7,8.7,69,40,16,30.54,30.19,10,2,13,0.00
2014-1-22,63.4,44.2,20.0,26.3,14.5,9.6,64,36,15,30.26,29.81,6,1,14,0.00
2014-1-23,36.3,27.1,14.1,22.0,13.3,-7.4,66,56,37,30.70,29.86,12,3,17,0.00
2014-1-24,52.0,31.1,13.6,19.6,10.2,-9.2,64,43,25,30.70,30.30,7,2,12,0.00
2014-1-25,61.8,48.1,31.2,32.8,14.3,-0.7,65,29,13,30.32,29.87,13,3,22,0.00
2014-1-26,60.5,54.5,50.2,35.8,32.6,29.6,56,44,31,29.96,29.68,22,8,158,0.00
2014-1-27,53.6,41.1,26.7,37.2,25.8,13.8,80,56,35,30.16,29.73,12,3,20,0.00
2014-1-28,47.3,31.3,11.4,38.0,11.2,-3.3,76,46,21,30.45,29.86,152,6,158,0.00
2014-1-29,55.0,33.6,9.2,16.7,9.5,-0.8,77,44,16,30.48,29.88,10,2,24,0.00
2014-1-30,64.0,55.8,39.2,22.2,18.8,13.8,35,24,19,29.90,29.65,20,6,30,0.00
2014-1-31,68.8,52.7,-15.9,27.9,22.1,-45.2,67,33,20,30.16,29.54,9,3,158,0.00
2014-2-1,64.7,51.7,30.3,25.3,22.5,18.9,67,34,18,29.88,29.03,52,3,158,0.00
2014-2-2,48.9,35.3,24.2,36.9,28.8,21.9,93,79,39,30.17,29.68,6,1,13,0.10
2014-2-3,52.4,42.9,24.4,33.3,27.6,17.6,95,58,25,30.12,29.60,9,4,22,0.00
2014-2-4,46.8,38.6,20.5,23.3,16.7,11.3,67,43,27,30.15,29.63,14,6,28,0.00
2014-2-5,30.1,21.7,16.1,22.1,15.6,10.9,89,77,64,30.36,30.15,8,3,13,0.00
2014-2-6,43.2,26.3,14.6,29.0,17.7,11.1,89,72,44,30.42,30.07,158,6,158,0.00
2014-2-7,49.8,39.0,21.9,24.6,20.9,17.8,85,52,30,30.17,29.97,152,7,152,0.00
2014-2-8,59.0,47.2,27.0,21.1,16.8,10.8,70,33,16,30.23,29.97,14,4,24,0.00
2014-2-9,66.0,50.5,4.1,24.4,17.8,-32.3,58,30,16,30.29,29.76,13,4,22,0.00
2014-2-10,69.1,56.4,31.5,23.7,19.9,14.4,59,26,15,29.88,29.63,13,4,21,0.00
2014-2-11,50.0,29.6,18.1,25.9,20.0,15.1,90,70,34,30.27,29.82,6,2,12,0.00
2014-2-12,59.6,42.1,23.3,23.1,16.3,7.1,79,40,14,30.33,29.90,8,2,18,0.00
2014-2-13,64.8,56.7,45.2,22.1,16.4,10.7,25,20,18,29.99,29.75,12,4,118,0.00
2014-2-14,72.5,58.7,36.5,21.1,17.9,15.9,48,22,12,29.98,29.72,10,3,21,0.00
2014-2-15,77.2,57.9,33.5,20.5,16.8,13.0,54,24,9,30.20,29.78,9,3,18,0.00
2014-2-16,77.4,54.0,31.8,24.2,15.1,11.8,52,26,10,30.15,29.83,12,2,17,0.00
2014-2-17,69.1,57.9,36.9,19.8,14.5,9.5,41,19,12,30.16,29.78,38,3,158,0.00
2014-2-18,72.7,53.0,33.8,21.9,18.7,15.2,50,30,12,30.10,29.83,12,2,21,0.00
2014-2-19,71.9,53.6,30.3,22.7,15.0,11.1,57,28,10,30.14,29.51,12,3,21,0.00
2014-2-20,64.2,53.7,25.8,16.4,10.1,6.0,48,19,11,30.09,29.50,16,5,33,0.00
2014-2-21,67.7,44.8,23.2,10.4,7.3,2.2,51,26,9,30.31,29.82,12,3,22,0.00
2014-2-22,69.1,48.1,25.8,14.0,8.0,-16.3,46,24,3,30.10,29.77,8,2,20,0.00
2014-2-23,69.4,47.7,29.4,15.8,11.6,7.7,48,27,10,30.13,29.86,10,2,12,0.00
2014-2-24,71.1,49.9,29.8,24.2,19.0,14.7,57,33,14,30.13,29.86,5,1,18,0.00
2014-2-25,67.7,51.1,30.1,31.5,23.6,19.6,65,39,19,30.09,29.78,6,2,17,0.00
2014-2-26,58.9,45.7,29.0,39.3,31.9,25.6,95,63,34,30.11,29.75,14,3,18,0.03
2014-2-27,67.6,51.5,29.1,33.2,24.1,15.1,86,41,14,30.08,29.63,10,4,30,0.00
2014-2-28,69.1,56.7,34.4,26.9,22.1,17.1,51,27,16,29.89,29.58,117,9,158,0.00
2014-3-1,71.6,53.9,30.3,21.9,16.3,9.2,60,28,11,30.03,29.69,12,3,20,0.00
2014-3-2,63.7,51.9,34.4,40.2,28.9,14.9,68,44,16,30.09,29.62,10,3,26,0.00
2014-3-3,53.3,38.3,25.3,29.3,23.5,19.3,83,58,35,30.31,29.99,12,2,18,0.00
2014-3-4,65.2,46.0,25.6,31.2,22.4,15.2,90,47,20,30.10,29.74,5,1,12,0.00
2014-3-5,57.6,50.9,34.1,31.2,25.9,19.2,74,39,27,30.16,29.65,16,5,30,0.00
2014-3-6,67.1,46.0,20.3,26.0,18.3,14.7,88,44,14,30.27,29.81,10,2,16,0.00
2014-3-7,68.8,56.2,37.9,26.0,21.4,15.6,53,27,18,29.85,29.55,12,3,18,0.00
2014-3-8,58.3,44.0,33.5,30.6,27.8,21.2,89,55,27,30.31,29.62,7,3,20,0.01
2014-3-9,47.1,38.7,31.3,32.0,28.8,25.1,92,70,46,30.34,30.17,6,2,12,0.13
2014-3-10,62.9,46.6,27.8,41.7,32.1,25.8,96,62,29,30.22,29.76,8,2,18,0.00
2014-3-11,67.8,57.4,49.5,33.8,25.1,14.8,51,31,15,29.77,29.59,13,6,28,0.00
2014-3-12,56.4,38.8,27.9,28.1,20.1,14.6,74,49,19,30.35,29.78,10,4,30,0.00
2014-3-13,61.6,47.8,34.0,25.4,20.4,15.5,49,35,23,30.28,29.84,7,4,16,0.00
2014-3-14,67.1,56.5,39.8,30.3,26.3,21.1,56,33,19,29.88,29.68,7,3,20,0.00
2014-3-15,59.5,52.4,43.6,30.7,24.7,15.3,55,35,20,29.87,29.65,20,6,30,0.00
2014-3-16,45.1,36.9,26.9,34.3,25.8,18.4,94,67,39,30.30,29.84,12,4,21,0.50
2014-3-17,64.3,50.2,24.4,22.6,14.0,9.8,82,28,12,30.29,29.52,10,4,24,0.00
2014-3-18,69.1,57.5,37.0,19.1,10.9,5.8,48,18,9,29.85,29.41,20,7,30,0.00
2014-3-19,63.3,44.8,29.5,22.5,17.2,3.5,62,36,15,30.22,29.80,9,2,14,0.00
2014-3-20,70.6,49.9,23.2,21.7,15.4,10.5,77,36,10,30.25,29.73,13,4,22,0.00
2014-3-21,72.3,62.6,49.5,27.0,16.3,10.0,40,18,10,29.77,29.63,12,5,26,0.00
2014-3-22,69.4,54.3,34.9,32.4,25.8,18.9,68,37,17,30.00,29.70,8,2,20,0.00
2014-3-23,55.6,42.7,32.4,31.6,28.3,25.5,86,60,32,30.26,29.87,8,3,13,0.00
2014-3-24,67.9,47.8,28.4,29.3,22.2,18.0,77,45,15,30.22,29.95,13,2,22,0.00
2014-3-25,59.8,46.5,29.5,44.3,32.8,22.5,82,60,44,30.21,29.83,16,4,25,0.06
2014-3-26,66.8,56.9,42.9,40.4,28.6,16.3,78,39,15,29.80,29.58,15,6,31,0.01
2014-3-27,69.5,59.5,37.6,19.3,14.7,10.9,43,18,12,29.79,29.51,158,11,158,0.00
2014-3-28,63.9,53.2,34.0,27.5,21.0,16.5,53,30,17,30.06,29.64,12,4,29,0.00
2014-3-29,67.8,49.1,27.0,30.6,20.3,16.5,68,37,17,30.27,29.92,8,3,22,0.00
2014-3-30,76.8,64.6,51.1,38.1,32.2,27.7,49,31,18,29.92,29.57,12,6,28,0.00
2014-3-31,73.2,61.8,38.9,38.5,17.5,9.1,50,20,9,29.87,29.58,14,5,29,0.00
2014-4-1,76.3,54.7,32.9,22.2,15.2,12.4,50,25,9,30.02,29.67,22,3,35,0.00
2014-4-2,74.7,59.7,40.2,22.9,17.6,12.0,37,21,9,29.76,29.52,14,6,26,0.00
2014-4-3,64.2,58.9,39.3,26.4,19.2,0.9,30,22,12,29.96,29.47,13,6,158,0.00
2014-4-4,60.6,46.3,24.5,22.3,14.8,1.6,67,31,19,30.16,29.85,9,2,35,0.00
2014-4-5,68.1,57.7,43.3,36.9,26.1,14.9,57,31,18,29.84,29.48,146,8,146,0.00
2014-4-6,59.9,48.0,-30.0,26.5,14.8,-59.8,64,29,12,30.25,29.62,16,4,30,0.00
2014-4-7,56.2,48.6,29.7,28.0,19.4,10.9,68,33,19,30.17,29.70,9,3,158,0.00
2014-4-8,70.8,46.8,22.9,26.6,18.2,10.1,85,42,11,30.44,30.09,7,2,17,0.00
2014-4-9,77.9,53.6,29.0,15.6,10.1,4.2,50,24,6,30.28,29.87,10,2,20,0.00
2014-4-10,76.8,60.4,36.2,10.5,3.7,-6.6,29,13,4,29.98,29.74,158,6,158,0.00
2014-4-11,79.2,56.2,32.4,21.4,8.5,0.3,34,18,5,30.07,29.75,12,2,16,0.00
2014-4-12,74.4,62.5,42.5,35.1,25.5,20.4,45,26,15,29.82,29.56,12,4,25,0.00
2014-4-13,72.3,65.6,59.2,37.2,23.4,8.3,43,23,9,29.59,29.48,16,6,25,0.00
2014-4-14,64.8,41.9,29.7,26.6,18.7,8.6,82,45,11,30.35,29.50,9,4,28,0.00
2014-4-15,62.0,41.3,13.8,11.7,4.0,-14.2,72,30,8,30.40,29.84,9,3,18,0.00
2014-4-16,74.6,57.7,34.3,20.2,12.6,6.1,43,19,7,29.90,29.53,8,2,17,0.00
2014-4-17,66.7,59.3,40.8,27.2,18.5,3.5,51,22,11,30.03,29.54,10,4,26,0.00
2014-4-18,71.8,57.6,39.2,46.7,38.3,25.3,87,52,23,30.14,29.78,7,3,17,0.00
2014-4-19,70.1,58.5,51.0,50.1,45.6,36.8,94,64,32,29.88,29.68,10,4,27,0.41
2014-4-20,71.3,57.4,40.2,50.1,40.0,26.3,96,61,19,30.03,29.82,7,2,17,0.01
2014-4-21,76.1,57.5,36.5,42.0,34.0,30.1,90,50,19,30.02,29.81,6,1,13,0.00
2014-4-22,75.1,61.2,41.2,45.9,37.9,34.5,89,48,24,30.07,29.62,8,3,20,0.00
2014-4-23,78.5,68.1,51.1,46.0,32.9,17.3,59,32,11,29.70,29.47,16,6,158,0.00
2014-4-24,76.3,62.6,43.9,23.4,18.3,11.3,43,20,9,29.87,29.53,8,3,24,0.00
2014-4-25,81.8,63.4,38.9,28.8,20.2,14.2,50,23,8,29.94,29.54,9,3,21,0.00
2014-4-26,78.6,66.6,41.3,44.9,19.0,4.2,51,21,7,29.73,29.28,14,2,20,0.00
2014-4-27,70.9,58.9,45.8,31.7,23.0,8.1,56,28,10,29.67,29.23,12,5,27,0.00
2014-4-28,72.3,61.8,52.9,24.9,21.1,17.1,29,21,14,29.68,29.51,14,6,22,0.00
2014-4-29,63.7,53.9,36.2,20.1,10.3,1.0,42,18,11,30.03,29.60,6,2,14,0.00
2014-4-30,55.0,46.4,31.8,21.1,18.6,13.8,47,33,25,30.19,29.97,9,5,21,0.00
2014-5-1,54.5,48.0,39.6,27.0,21.8,18.9,57,36,28,30.10,29.93,9,5,20,0.00
2014-5-2,65.8,46.9,23.5,28.0,18.0,10.6,80,40,12,30.25,29.90,7,2,17,0.00
2014-5-3,76.3,54.6,29.5,20.8,14.2,8.5,55,26,8,30.25,29.81,158,5,158,0.00
2014-5-4,82.4,61.5,36.2,17.9,10.5,3.9,38,17,5,30.18,29.69,12,2,18,0.00
2014-5-5,85.1,63.3,37.9,19.7,14.7,8.6,32,18,8,30.08,29.55,10,2,14,0.00
2014-5-6,78.5,67.2,48.4,38.1,23.8,15.6,37,20,11,29.86,29.49,14,5,21,0.00
2014-5-7,78.1,69.8,57.9,38.0,31.7,16.1,47,26,14,29.58,29.40,18,6,24,0.00
2014-5-8,72.5,60.8,37.2,22.3,15.1,6.5,31,17,11,29.84,29.55,156,6,158,0.00
2014-5-9,77.9,58.8,36.8,19.8,12.8,5.4,44,20,6,30.04,29.66,147,5,153,0.00
2014-5-10,83.0,61.5,35.8,15.8,11.8,7.8,31,17,7,30.01,29.45,158,6,158,0.00
2014-5-11,85.1,67.2,39.4,21.9,14.7,6.8,36,16,6,29.74,29.30,158,9,158,0.00
2014-5-12,76.7,66.8,47.1,29.0,21.7,15.1,40,19,11,29.97,29.29,15,4,158,0.00
2014-5-13,56.4,46.0,32.4,31.8,25.6,19.2,62,46,32,30.38,29.78,12,5,22,0.00
2014-5-14,59.3,42.9,24.4,22.8,15.5,6.2,76,39,15,30.43,30.18,8,2,158,0.00
2014-5-15,71.2,49.6,24.7,11.1,7.8,5.2,48,23,8,30.35,29.96,9,2,26,0.00
2014-5-16,80.1,59.1,32.2,15.1,9.7,4.5,35,17,7,30.21,29.66,12,2,20,0.00
2014-5-17,84.5,64.5,39.5,27.2,14.2,5.6,30,17,5,30.01,29.59,12,2,16,0.00
2014-5-18,88.0,72.5,46.8,36.1,21.0,8.3,49,19,5,29.83,29.51,10,3,33,0.00
2014-5-19,87.4,73.9,48.6,41.2,27.2,17.7,57,22,8,29.75,29.54,16,3,158,0.00
2014-5-20,88.0,70.8,43.9,48.4,19.4,7.1,43,17,7,29.90,29.56,10,2,60,0.00
2014-5-21,85.5,75.6,64.8,51.5,36.0,25.6,55,26,12,29.69,29.53,114,6,132,0.00
2014-5-22,79.9,69.4,58.4,53.6,45.9,33.5,74,45,22,29.79,29.59,12,4,158,0.00
2014-5-23,75.6,65.5,52.8,56.7,50.3,42.3,92,60,41,29.80,29.64,7,2,158,0.67
2014-5-24,75.1,65.8,56.5,57.3,51.9,39.8,94,65,28,29.77,29.61,12,3,158,0.00
2014-5-25,78.9,62.5,44.8,51.6,39.2,19.5,96,54,11,29.87,29.65,8,2,158,0.00
2014-5-26,79.7,64.1,43.2,52.3,37.1,30.1,83,45,17,29.93,29.67,9,2,25,0.00
2014-5-27,83.8,67.1,43.2,44.6,34.1,26.6,79,37,13,29.98,29.67,8,2,18,0.00
2014-5-28,79.4,65.0,45.4,47.2,39.8,33.9,79,44,22,30.01,29.71,9,2,14,0.00
2014-5-29,79.6,64.6,44.5,48.7,40.4,37.1,87,46,23,29.94,29.70,9,2,16,0.00
2014-5-30,80.1,67.5,52.1,48.2,42.6,37.4,75,44,26,29.93,29.66,6,1,13,0.00
2014-5-31,86.0,72.3,49.8,48.4,42.7,38.8,78,38,20,29.83,29.59,8,1,16,0.00
2014-6-1,93.4,79.9,57.5,48.0,38.9,31.7,57,26,13,29.68,29.47,9,3,27,0.00
2014-6-2,94.9,78.7,54.8,52.6,33.1,20.2,64,26,7,29.74,29.49,7,2,14,0.00
2014-6-3,93.2,78.7,55.5,59.0,43.5,27.4,72,32,15,29.82,29.50,8,2,21,0.00
2014-6-4,96.6,80.1,53.3,52.3,40.5,30.8,65,30,14,29.66,29.42,6,2,22,0.00
2014-6-5,96.9,79.2,48.3,48.2,31.7,14.3,63,23,5,29.63,29.40,12,2,18,0.00
2014-6-6,94.0,81.8,61.8,53.2,45.5,37.2,61,31,15,29.52,29.36,13,5,30,0.00
2014-6-7,90.3,78.0,59.6,56.4,48.8,36.4,70,39,15,29.55,29.39,13,3,30,0.00
2014-6-8,80.9,72.9,63.5,63.2,54.9,47.4,74,54,37,29.59,29.42,13,4,27,0.00
2014-6-9,76.7,66.8,52.6,61.2,49.4,38.2,84,56,33,29.81,29.51,7,2,18,0.00
2014-6-10,89.3,69.9,42.9,48.9,41.4,27.9,87,41,11,29.87,29.57,7,2,16,0.00
2014-6-11,92.6,81.0,64.2,43.5,36.1,27.9,44,22,11,29.64,29.44,14,4,20,0.00
2014-6-12,88.2,74.0,56.7,43.6,36.4,29.6,46,27,15,29.84,29.58,12,2,20,0.00
2014-6-13,81.6,68.8,59.8,62.1,54.5,36.2,89,64,21,29.82,29.62,9,2,22,0.40
2014-6-14,88.1,75.2,56.5,53.3,45.8,37.0,85,39,17,29.84,29.46,10,4,156,0.00
2014-6-15,90.4,76.7,59.8,53.3,45.2,36.5,73,37,17,29.66,29.50,14,4,27,0.14
2014-6-16,86.6,76.4,66.4,53.8,42.3,34.3,61,32,17,29.76,29.55,10,2,22,0.00
2014-6-17,85.2,73.7,54.8,51.6,45.3,40.5,73,39,21,29.75,29.57,14,4,37,0.00
2014-6-18,89.7,74.0,55.3,58.3,45.9,36.3,78,41,16,29.75,29.54,7,2,20,0.01
2014-6-19,84.5,69.8,58.4,57.6,50.0,41.6,89,54,23,29.84,29.58,8,2,21,0.40
2014-6-20,74.5,64.8,51.9,58.9,54.8,49.3,94,72,51,29.93,29.73,6,1,16,0.04
2014-6-21,80.7,68.0,51.6,61.5,50.7,37.1,96,61,21,29.81,29.55,7,1,16,0.00
2014-6-22,88.2,71.6,54.8,56.8,49.4,43.3,90,52,22,29.71,29.58,10,2,21,0.05
2014-6-23,83.2,71.9,53.1,61.5,52.4,43.9,80,53,27,29.90,29.57,7,2,20,0.00
2014-6-24,82.7,70.7,54.2,56.6,50.9,46.4,87,53,29,29.85,29.67,9,2,20,0.09
2014-6-25,84.0,66.0,52.6,57.2,50.8,42.5,89,61,29,29.93,29.70,8,2,20,0.03
2014-6-26,86.1,73.8,53.9,61.3,47.8,40.4,69,42,25,29.81,29.50,9,3,90,0.04
2014-6-27,90.8,80.0,62.3,53.0,45.4,39.7,61,31,19,29.61,29.38,9,4,24,0.00
2014-6-28,91.0,74.1,52.5,48.6,39.2,32.0,64,33,13,29.66,29.45,9,3,20,0.00
2014-6-29,95.1,76.9,55.7,56.4,45.4,37.2,80,38,14,29.73,29.52,7,2,20,0.00
2014-6-30,91.8,78.0,57.2,58.8,46.8,37.1,75,37,20,29.71,29.48,16,4,26,0.00
2014-7-1,87.8,77.1,59.0,59.7,46.1,39.7,62,35,20,29.65,29.48,13,4,26,0.00
2014-7-2,80.9,70.5,55.4,57.9,51.9,47.8,77,53,37,29.83,29.62,9,3,22,0.00
2014-7-3,77.2,69.1,56.5,54.5,51.0,44.8,84,55,32,29.92,29.80,7,2,17,0.00
2014-7-4,82.5,72.6,63.5,50.8,47.8,41.9,61,43,26,29.92,29.81,9,4,22,0.00
2014-7-5,84.0,73.2,53.6,50.7,46.1,40.3,72,41,23,29.98,29.75,12,3,25,0.00
2014-7-6,81.6,71.0,54.5,59.5,50.5,45.5,83,51,30,29.85,29.68,9,2,18,0.09
2014-7-7,78.6,68.4,62.0,60.0,53.6,45.9,85,61,40,29.88,29.71,7,2,17,0.26
2014-7-8,83.6,70.4,49.4,53.7,47.7,42.3,92,49,25,29.89,29.70,8,2,18,0.00
2014-7-9,83.2,71.2,52.8,56.6,51.6,45.2,91,53,28,29.86,29.68,7,2,24,0.00
2014-7-10,83.5,71.1,53.6,56.5,52.1,48.1,89,54,31,29.81,29.67,9,3,20,0.00
2014-7-11,83.1,68.7,50.6,56.3,51.4,46.6,94,59,28,29.84,29.71,6,2,20,0.00
2014-7-12,79.9,68.9,63.1,58.9,55.8,50.3,80,65,37,29.89,29.76,12,4,21,0.05
2014-7-13,84.1,72.1,53.6,57.7,51.3,45.5,89,52,26,29.98,29.76,152,6,158,0.00
2014-7-14,82.0,66.8,54.9,59.9,53.2,49.4,85,65,34,29.90,29.78,6,1,12,0.24
2014-7-19,82.2,69.9,58.7,66.0,59.1,50.3,91,71,35,29.87,29.69,6,1,20,1.00
2014-7-20,86.5,70.5,61.0,66.8,56.9,48.6,88,66,28,29.89,29.64,7,1,16,0.19
2014-7-21,85.5,74.1,59.2,62.6,56.3,50.2,94,58,32,29.85,29.74,7,1,20,0.00
2014-7-22,85.5,75.3,60.1,57.3,53.4,46.9,82,49,28,29.94,29.78,6,2,16,0.00
2014-7-23,82.6,71.2,54.2,58.4,49.7,43.4,92,51,26,29.94,29.81,8,3,19,0.00
2014-7-24,84.0,72.4,54.7,56.0,49.5,44.1,89,48,25,29.88,29.75,6,2,17,0.00
2014-7-25,87.1,81.4,66.0,49.4,42.5,38.1,55,27,18,29.83,29.66,7,2,14,0.00
2014-7-26,88.0,77.0,58.9,57.7,49.9,42.7,80,42,24,29.79,29.62,7,2,20,0.00
2014-7-27,76.5,69.6,58.3,56.1,52.0,50.4,78,55,40,29.81,29.65,9,3,22,0.00
2014-9-3,78.1,70.5,52.9,58.7,56.7,50.3,91,63,45,29.74,29.61,8,3,22,0.00
2014-9-4,71.6,65.3,61.6,57.5,56.1,54.1,85,73,58,29.74,29.61,12,3,24,0.00
2014-9-5,65.8,63.7,62.1,61.2,55.2,53.3,89,74,67,29.84,29.71,8,5,20,0.16
2014-9-8,75.8,70.2,61.5,57.8,56.4,55.2,86,62,53,29.87,29.74,5,2,16,0.00
2014-9-9,80.4,69.8,55.1,59.4,55.9,52.8,94,64,42,29.84,29.65,9,2,20,0.00
2014-9-10,83.3,69.2,53.6,55.9,48.2,41.2,93,53,23,29.78,29.63,8,2,20,0.00
2014-9-11,59.9,54.4,51.3,49.2,48.4,47.3,86,80,64,29.76,29.73,2,0,7,0.00
2014-9-15,68.8,65.5,63.7,60.8,60.5,60.1,88,84,75,29.97,29.90,2,1,7,0.02
2014-9-16,74.4,64.9,61.3,60.3,58.4,55.1,92,81,51,29.95,29.82,5,1,16,0.00
2014-10-5,52.6,43.1,36.9,30.6,29.5,28.6,76,59,40,29.93,29.78,1,0,3,0.00
2014-10-6,79.9,66.8,38.5,38.0,29.9,23.4,79,31,13,30.00,29.80,5,1,12,0.00
2014-10-7,78.8,61.5,38.2,36.8,32.3,28.7,76,39,17,29.93,29.70,10,3,20,0.00
2014-10-8,82.6,65.3,42.5,42.8,37.1,31.3,79,41,20,29.94,29.63,8,2,26,0.00
2014-10-9,81.5,69.9,52.5,49.3,44.3,37.1,69,42,23,29.75,29.56,10,4,25,0.00
2014-10-10,75.6,61.3,46.1,51.4,43.4,38.9,86,56,28,29.90,29.64,0,0,6,0.00
2014-10-11,66.8,54.3,42.8,51.0,46.7,39.8,96,78,50,30.08,29.85,0,0,0,0.00
2014-10-12,75.0,59.0,39.4,55.8,39.4,30.5,98,58,23,29.97,29.53,0,0,0,0.01
2014-10-13,66.6,51.6,32.7,35.0,29.1,19.4,74,44,24,30.19,29.55,0,0,0,0.00
2014-10-14,71.3,47.2,27.2,31.3,24.9,22.2,86,51,18,30.36,30.07,0,0,0,0.00
2014-10-15,78.6,52.0,29.4,32.5,26.0,22.7,76,45,15,30.30,29.94,0,0,0,0.00
2014-10-16,81.4,57.7,33.2,37.4,31.7,26.7,84,45,16,30.08,29.79,0,0,0,0.00
2014-10-17,82.5,59.3,38.3,42.0,37.1,32.9,82,51,19,30.04,29.77,0,0,0,0.00
2014-10-18,69.8,59.1,43.8,49.7,42.0,32.2,78,55,29,29.98,29.71,0,0,0,0.00
2014-10-19,71.1,60.7,54.1,52.8,48.6,45.0,84,66,42,29.92,29.75,0,0,0,0.00
2014-10-20,56.5,54.8,52.2,52.2,50.6,48.7,92,86,76,29.93,29.77,0,0,0,0.05
2014-11-4,43.3,40.5,37.3,42.1,39.1,35.5,96,94,91,30.22,30.03,0,0,0,0.41
2014-11-5,45.7,43.1,41.3,42.2,40.8,38.3,96,92,83,30.37,30.10,0,0,0,0.03
2014-11-6,61.5,43.5,32.2,43.5,35.3,28.4,94,74,49,30.37,30.03,0,0,0,0.01
2014-11-7,61.3,49.4,36.3,42.9,38.9,33.4,89,68,48,30.25,29.91,0,0,0,0.01
2014-11-8,64.5,40.8,26.1,40.0,30.9,23.8,94,74,23,30.33,30.03,0,0,0,0.01
2014-11-9,67.8,56.6,38.3,38.2,32.3,21.0,70,42,22,30.09,29.63,0,0,0,0.01
2014-11-10,66.9,63.1,59.0,36.8,33.4,30.6,38,33,29,29.63,29.58,0,0,0,0.00
2014-11-11,62.5,49.2,34.0,38.8,32.9,27.9,89,56,37,30.08,29.65,0,0,0,0.00
2014-11-12,40.6,31.0,20.6,33.7,23.6,12.4,92,75,52,30.39,29.94,0,0,0,0.00
2014-11-13,42.1,26.7,14.8,19.8,14.5,8.7,81,62,37,30.55,30.28,0,0,0,0.00
2014-11-14,64.0,45.9,25.7,41.4,33.9,21.8,93,67,37,30.26,29.81,0,0,0,0.00
2014-11-15,63.1,51.3,31.8,38.1,34.0,29.5,92,55,35,29.99,29.76,0,0,0,0.00
2014-11-16,60.5,42.3,22.1,34.6,27.5,13.8,83,59,27,30.16,29.73,0,0,0,0.00
2014-11-17,30.8,19.6,12.8,15.2,11.4,3.7,84,72,31,30.55,30.17,0,0,0,0.00
2014-11-18,57.2,38.5,18.9,21.0,12.9,8.8,72,39,18,30.49,30.13,0,0,0,0.00
2014-11-19,61.5,43.9,24.2,31.4,20.2,9.0,83,45,14,30.23,29.89,0,0,0,0.00
2014-11-20,63.4,40.4,25.4,31.5,21.5,16.3,82,54,17,30.25,29.83,0,0,0,0.00
2014-11-21,66.0,45.5,33.7,40.2,29.5,22.8,79,58,23,30.04,29.77,0,0,0,0.00
2014-11-22,59.4,53.6,49.0,38.5,31.6,27.6,53,44,32,29.88,29.73,0,0,0,0.00
2014-11-23,57.0,50.3,35.6,26.7,23.2,19.0,63,35,24,29.91,29.56,0,0,0,0.00
2014-11-24,48.4,36.0,19.9,21.1,4.6,-6.5,82,32,12,30.17,29.95,0,0,0,0.00
2014-11-25,47.0,36.0,18.9,12.2,4.5,-0.3,64,30,14,30.52,30.14,0,0,0,0.00
2014-11-26,62.1,46.6,26.1,18.9,10.5,-6.9,67,27,11,30.34,30.08,0,0,0,0.00
2014-11-27,64.0,39.1,21.0,24.9,17.7,15.5,82,50,18,30.60,30.28,0,0,0,0.00
2014-11-28,67.6,40.4,19.9,21.9,12.1,6.8,75,42,10,30.45,29.98,0,0,0,0.00
2014-11-29,68.1,51.8,26.4,15.1,13.2,8.0,54,24,12,30.04,29.74,0,0,0,0.00
2014-11-30,67.4,53.4,30.7,19.6,13.8,7.8,58,23,13,30.08,29.76,0,0,0,0.00
2014-12-1,54.1,34.9,23.8,28.1,17.9,12.8,73,53,27,30.47,30.09,0,0,0,0.00
2014-12-2,65.5,44.7,25.4,42.1,28.6,18.2,94,60,22,30.38,29.89,0,0,0,0.00
2014-12-3,68.2,56.0,36.2,40.5,31.3,21.2,81,42,26,30.05,29.80,0,0,0,0.00
2014-12-4,68.4,49.1,34.7,46.0,33.9,29.1,95,62,27,30.12,29.82,0,0,0,0.00
2014-12-5,62.9,49.2,31.5,42.2,35.0,28.1,87,61,34,30.26,29.79,0,0,0,0.00
2014-12-6,59.3,44.3,30.1,37.9,31.2,26.1,95,65,28,30.49,30.18,0,0,0,0.00
2014-12-7,61.3,46.9,30.9,44.0,37.2,28.6,91,70,50,30.25,30.01,0,0,0,0.00
2014-12-8,60.1,42.2,25.0,40.9,32.7,23.0,96,74,36,30.46,30.19,0,0,0,0.00
2014-12-9,55.3,44.2,30.6,45.7,38.5,29.1,97,81,62,30.32,30.00,0,0,0,0.01
2014-12-10,61.3,47.2,33.2,51.3,41.3,31.2,97,82,52,30.12,29.89,0,0,0,0.02
2014-12-11,65.7,45.3,30.3,53.0,35.0,28.8,98,74,29,30.24,30.00,0,0,0,0.01
2014-12-12,66.9,45.7,30.4,48.5,33.3,28.9,98,68,28,30.27,30.02,0,0,0,0.00
2014-12-13,67.4,51.3,33.4,46.8,34.9,26.1,95,61,21,30.17,29.62,0,0,0,0.00
2014-12-14,59.3,48.6,38.2,34.9,24.2,3.0,78,42,15,29.87,29.60,0,0,0,0.00
2014-12-15,58.0,44.2,26.3,24.2,16.7,12.2,63,36,17,30.17,29.86,0,0,0,0.00
2014-12-16,56.5,43.0,25.8,41.6,29.2,15.0,73,59,41,30.28,29.88,0,0,0,0.00
2014-12-17,57.0,48.8,25.4,43.0,30.3,18.7,76,52,28,30.11,29.79,0,0,0,0.00
2014-12-18,56.3,38.5,24.5,32.0,24.2,18.5,90,61,28,30.29,30.00,0,0,0,0.00
2014-12-19,50.7,34.8,21.9,29.1,23.7,17.2,92,67,37,30.27,30.04,0,0,0,0.00
2014-12-20,54.1,37.3,16.8,29.8,22.6,13.6,91,60,33,30.31,29.95,0,0,0,0.00
2014-12-21,56.4,44.4,24.2,23.6,17.8,9.9,72,36,23,30.11,29.71,0,0,0,0.00
2014-12-22,61.2,52.8,48.3,29.3,26.2,20.9,43,36,27,29.75,29.53,0,0,0,0.00
2014-12-23,51.7,31.0,17.7,33.3,25.7,14.2,92,82,45,30.32,29.53,0,0,0,0.18
2014-12-24,41.1,27.4,11.4,26.8,14.1,7.1,89,62,28,30.50,29.96,0,0,0,0.03
2014-12-25,59.3,45.8,25.7,14.5,10.7,5.4,58,27,13,30.00,29.60,0,0,0,0.00
2014-12-26,58.3,48.1,28.0,29.6,19.4,11.2,85,37,18,29.96,29.58,0,0,0,0.00
2014-12-27,33.5,29.4,24.5,30.1,26.2,20.9,91,88,82,30.31,29.95,0,0,0,0.03
2014-12-28,44.8,31.1,15.9,26.7,18.5,7.3,93,64,31,30.39,30.08,0,0,0,0.06
2014-12-29,52.5,34.2,19.3,28.3,14.5,6.5,88,52,16,30.28,30.03,0,0,0,0.00
2014-12-30,36.1,25.1,18.4,25.8,19.1,12.1,91,79,60,30.42,30.11,7,1,13,0.00
2014-12-31,45.1,25.8,17.5,40.8,23.5,14.6,97,91,78,30.47,30.04,6,2,16,0.00
2015-1-1,54.1,48.8,39.9,38.0,35.4,33.1,87,61,46,30.00,29.76,14,7,27,0.00
2015-1-2,49.6,37.7,24.0,42.4,34.2,22.0,96,88,53,29.94,29.72,13,5,21,1.12